Time,TemperatureF,DewpointF,PressureIn,WindDirection,WindDirectionDegrees,WindSpeedMPH,WindSpeedGustMPH,Humidity,HourlyPrecipIn,Conditions,Clouds,dailyrainin,SoftwareType,DateUTC
2013-02-20 00:01:00,25.0,16.0,-100.00,South,190,0.0,3.0,68,0.00,,,-99.99,,2013-02-20 07:01:00,
2013-02-20 00:11:00,24.0,15.0,-100.00,NNE,30,0.0,1.0,69,0.00,,,-99.99,,2013-02-20 07:11:00,
2013-02-20 00:21:00,24.0,16.0,-100.00,ENE,60,0.0,2.0,70,0.00,,,-99.99,,2013-02-20 07:21:00,
2013-02-20 00:31:00,24.0,16.0,-100.00,SSW,205,0.0,1.0,71,0.00,,,-99.99,,2013-02-20 07:31:00,
2013-02-20 00:41:00,24.0,16.0,-100.00,West,270,1.0,2.0,71,0.00,,,-99.99,,2013-02-20 07:41:00,
2013-02-20 00:51:00,24.0,16.0,-100.00,SW,220,0.0,3.0,71,0.00,,,-99.99,,2013-02-20 07:51:00,
2013-02-20 01:01:00,24.0,16.0,-100.00,West,275,0.0,1.0,71,0.00,,,-99.99,,2013-02-20 08:01:00,
2013-02-20 01:11:00,24.0,16.0,-100.00,SSW,205,0.0,4.0,71,0.00,,,-99.99,,2013-02-20 08:11:00,
2013-02-20 01:21:00,23.0,16.0,-100.00,SW,215,0.0,1.0,72,0.00,,,-99.99,,2013-02-20 08:21:00,
2013-02-20 01:31:00,23.0,15.0,-100.00,North,0,0.0,1.0,72,0.00,,,-99.99,,2013-02-20 08:31:00,
2013-02-20 01:41:00,23.0,15.0,-100.00,NW,320,0.0,1.0,73,0.00,,,-99.99,,2013-02-20 08:41:00,
2013-02-20 01:52:00,22.0,16.0,-100.00,SSE,165,1.0,2.0,74,0.00,,,-99.99,,2013-02-20 08:52:00,
2013-02-20 02:01:00,22.0,16.0,-100.00,West,265,0.0,2.0,74,0.00,,,-99.99,,2013-02-20 09:01:00,
2013-02-20 02:11:00,22.0,15.0,-100.00,ESE,120,0.0,1.0,75,0.00,,,-99.99,,2013-02-20 09:11:00,
2013-02-20 02:21:00,22.0,15.0,-100.00,SE,130,0.0,2.0,76,0.00,,,-99.99,,2013-02-20 09:21:00,
2013-02-20 02:31:00,22.0,16.0,-100.00,NW,305,1.0,2.0,76,0.00,,,-99.99,,2013-02-20 09:31:00,
2013-02-20 02:41:00,22.0,16.0,-100.00,NW,320,0.0,2.0,77,0.00,,,-99.99,,2013-02-20 09:41:00,
2013-02-20 02:51:00,22.0,16.0,-100.00,NW,310,1.0,3.0,77,0.00,,,-99.99,,2013-02-20 09:51:00,
2013-02-20 03:01:00,22.0,16.0,-100.00,SSW,200,0.0,3.0,77,0.00,,,-99.99,,2013-02-20 10:01:00,
2013-02-20 03:12:00,21.0,15.0,-100.00,SSW,210,1.0,2.0,77,0.00,,,-99.99,,2013-02-20 10:12:00,
2013-02-20 03:21:00,21.0,15.0,-100.00,SSW,210,0.0,2.0,77,0.00,,,-99.99,,2013-02-20 10:21:00,
2013-02-20 03:31:00,21.0,15.0,-100.00,South,190,1.0,3.0,77,0.00,,,-99.99,,2013-02-20 10:31:00,
2013-02-20 03:41:00,21.0,15.0,-100.00,WSW,240,1.0,3.0,77,0.00,,,-99.99,,2013-02-20 10:41:00,
2013-02-20 03:51:00,22.0,16.0,-100.00,SW,225,0.0,4.0,77,0.00,,,-99.99,,2013-02-20 10:51:00,
2013-02-20 04:02:00,22.0,15.0,-100.00,SSW,195,1.0,4.0,76,0.00,,,-99.99,,2013-02-20 11:02:00,
2013-02-20 04:11:00,21.0,15.0,-100.00,East,100,1.0,2.0,76,0.00,,,-99.99,,2013-02-20 11:11:00,
2013-02-20 04:21:00,21.0,15.0,-100.00,SW,225,0.0,4.0,76,0.00,,,-99.99,,2013-02-20 11:21:00,
2013-02-20 04:32:00,21.0,15.0,-100.00,SSW,205,1.0,2.0,76,0.00,,,-99.99,,2013-02-20 11:32:00,
2013-02-20 04:41:00,21.0,15.0,-100.00,SSE,155,1.0,2.0,76,0.00,,,-99.99,,2013-02-20 11:41:00,
2013-02-20 04:52:00,21.0,15.0,-100.00,SSE,165,0.0,4.0,75,0.00,,,-99.99,,2013-02-20 11:52:00,
2013-02-20 05:01:00,21.0,14.0,-100.00,SE,135,1.0,2.0,75,0.00,,,-99.99,,2013-02-20 12:01:00,
2013-02-20 05:11:00,20.0,14.0,-100.00,SW,220,1.0,3.0,74,0.00,,,-99.99,,2013-02-20 12:11:00,
2013-02-20 05:21:00,20.0,14.0,-100.00,SSW,195,1.0,4.0,75,0.00,,,-99.99,,2013-02-20 12:21:00,
2013-02-20 05:31:00,20.0,14.0,-100.00,South,180,1.0,1.0,75,0.00,,,-99.99,,2013-02-20 12:31:00,
2013-02-20 05:42:00,20.0,14.0,-100.00,SSW,205,1.0,2.0,75,0.00,,,-99.99,,2013-02-20 12:42:00,
2013-02-20 05:52:00,21.0,14.0,-100.00,South,190,1.0,4.0,75,0.00,,,-99.99,,2013-02-20 12:52:00,
2013-02-20 06:01:00,20.0,14.0,-100.00,South,180,0.0,1.0,75,0.00,,,-99.99,,2013-02-20 13:01:00,
2013-02-20 06:11:00,21.0,14.0,-100.00,SSW,200,1.0,3.0,75,0.00,,,-99.99,,2013-02-20 13:11:00,
2013-02-20 06:22:00,21.0,14.0,-100.00,SSW,195,0.0,2.0,75,0.00,,,-99.99,,2013-02-20 13:22:00,
2013-02-20 06:31:00,20.0,14.0,-100.00,West,280,1.0,2.0,75,0.00,,,-99.99,,2013-02-20 13:31:00,
2013-02-20 06:42:00,21.0,15.0,-100.00,SW,230,0.0,3.0,75,0.00,,,-99.99,,2013-02-20 13:42:00,
2013-02-20 06:51:00,21.0,15.0,-100.00,SSW,200,0.0,2.0,75,0.00,,,-99.99,,2013-02-20 13:51:00,
2013-02-20 07:01:00,21.0,15.0,-100.00,SSW,205,0.0,4.0,74,0.00,,,-99.99,,2013-02-20 14:01:00,
2013-02-20 07:11:00,21.0,15.0,-100.00,South,180,0.0,4.0,74,0.00,,,-99.99,,2013-02-20 14:11:00,
2013-02-20 07:21:00,21.0,15.0,-100.00,NW,315,0.0,1.0,74,0.00,,,-99.99,,2013-02-20 14:21:00,
2013-02-20 07:32:00,21.0,14.0,-100.00,SE,135,0.0,2.0,74,0.00,,,-99.99,,2013-02-20 14:32:00,
2013-02-20 07:42:00,21.0,14.0,-100.00,South,175,0.0,4.0,74,0.00,,,-99.99,,2013-02-20 14:42:00,
2013-02-20 07:52:00,22.0,15.0,-100.00,SW,230,1.0,2.0,73,0.00,,,-99.99,,2013-02-20 14:52:00,
2013-02-20 08:01:00,23.0,15.0,-100.00,SW,220,0.0,2.0,73,0.00,,,-99.99,,2013-02-20 15:01:00,
2013-02-20 08:11:00,23.0,16.0,-100.00,NW,320,0.0,6.0,72,0.00,,,-99.99,,2013-02-20 15:11:00,
2013-02-20 08:22:00,24.0,16.0,-100.00,SSW,205,0.0,1.0,70,0.00,,,-99.99,,2013-02-20 15:22:00,
2013-02-20 08:32:00,24.0,16.0,-100.00,SSW,200,1.0,2.0,70,0.00,,,-99.99,,2013-02-20 15:32:00,
2013-02-20 08:41:00,24.0,16.0,-100.00,SSE,165,2.0,3.0,70,0.00,,,-99.99,,2013-02-20 15:41:00,
2013-02-20 08:52:00,24.0,16.0,-100.00,SW,215,1.0,4.0,69,0.00,,,-99.99,,2013-02-20 15:52:00,
2013-02-20 09:01:00,25.0,16.0,-100.00,SW,215,3.0,4.0,69,0.00,,,-99.99,,2013-02-20 16:01:00,
2013-02-20 09:11:00,26.0,17.0,-100.00,SSW,200,1.0,4.0,67,0.00,,,-99.99,,2013-02-20 16:11:00,
2013-02-20 09:21:00,26.0,17.0,-100.00,SSW,205,0.0,3.0,66,0.00,,,-99.99,,2013-02-20 16:21:00,
2013-02-20 09:32:00,27.0,17.0,-100.00,WNW,300,0.0,2.0,63,0.00,,,-99.99,,2013-02-20 16:32:00,
2013-02-20 09:41:00,28.0,17.0,-100.00,NNW,330,1.0,3.0,61,0.00,,,-99.99,,2013-02-20 16:41:00,
2013-02-20 09:51:00,31.0,16.0,-100.00,NE,35,2.0,5.0,54,0.00,,,-99.99,,2013-02-20 16:51:00,
2013-02-20 10:01:00,32.0,15.0,-100.00,North,0,2.0,6.0,49,0.00,,,-99.99,,2013-02-20 17:01:00,
2013-02-20 10:11:00,33.0,14.0,-100.00,North,10,2.0,7.0,45,0.00,,,-99.99,,2013-02-20 17:11:00,
2013-02-20 10:21:00,36.0,14.0,-100.00,ESE,115,2.0,7.0,40,0.00,,,-99.99,,2013-02-20 17:21:00,
2013-02-20 10:32:00,37.0,14.0,-100.00,SE,140,2.0,7.0,38,0.00,,,-99.99,,2013-02-20 17:32:00,
2013-02-20 10:41:00,38.0,13.0,-100.00,South,185,2.0,6.0,35,0.00,,,-99.99,,2013-02-20 17:41:00,
2013-02-20 10:52:00,37.0,11.0,-100.00,North,0,2.0,5.0,33,0.00,,,-99.99,,2013-02-20 17:52:00,
2013-02-20 11:02:00,38.0,12.0,-100.00,ESE,110,1.0,6.0,33,0.00,,,-99.99,,2013-02-20 18:02:00,
2013-02-20 11:11:00,38.0,11.0,-100.00,SSE,165,4.0,6.0,32,0.00,,,-99.99,,2013-02-20 18:11:00,
2013-02-20 11:21:00,38.0,11.0,-100.00,SSE,160,3.0,7.0,32,0.00,,,-99.99,,2013-02-20 18:21:00,
2013-02-20 11:31:00,40.0,12.0,-100.00,North,350,2.0,5.0,31,0.00,,,-99.99,,2013-02-20 18:31:00,
2013-02-20 11:41:00,40.0,12.0,-100.00,SSE,165,1.0,4.0,30,0.00,,,-99.99,,2013-02-20 18:41:00,
2013-02-20 11:51:00,40.0,11.0,-100.00,West,270,1.0,4.0,30,0.00,,,-99.99,,2013-02-20 18:51:00,
2013-02-20 12:01:00,40.0,11.0,-100.00,SSW,210,2.0,4.0,29,0.00,,,-99.99,,2013-02-20 19:01:00,
2013-02-20 12:11:00,41.0,12.0,-100.00,SSE,155,2.0,4.0,29,0.00,,,-99.99,,2013-02-20 19:11:00,
2013-02-20 12:21:00,42.0,12.0,-100.00,South,175,1.0,3.0,28,0.00,,,-99.99,,2013-02-20 19:21:00,
2013-02-20 12:31:00,42.0,11.0,-100.00,ESE,120,2.0,4.0,27,0.00,,,-99.99,,2013-02-20 19:31:00,
2013-02-20 12:41:00,43.0,11.0,-100.00,SE,145,1.0,5.0,27,0.00,,,-99.99,,2013-02-20 19:41:00,
2013-02-20 12:51:00,44.0,12.0,-100.00,SSW,200,1.0,4.0,26,0.00,,,-99.99,,2013-02-20 19:51:00,
2013-02-20 13:01:00,46.0,13.0,-100.00,SE,140,1.0,4.0,25,0.00,,,-99.99,,2013-02-20 20:01:00,
2013-02-20 13:11:00,45.0,11.0,-100.00,SSE,165,2.0,4.0,25,0.00,,,-99.99,,2013-02-20 20:11:00,
2013-02-20 13:21:00,44.0,10.0,-100.00,North,-999,-999.0,-999.0,25,-99.99,,,-99.99,,2013-02-20 20:21:00,
2013-02-20 13:31:00,44.0,11.0,-100.00,SE,140,1.0,4.0,25,0.00,,,-99.99,,2013-02-20 20:31:00,
2013-02-20 13:41:00,44.0,12.0,-100.00,SSE,160,4.0,6.0,25,0.00,,,-99.99,,2013-02-20 20:41:00,
2013-02-20 13:51:00,45.0,12.0,-100.00,SE,130,1.0,4.0,25,0.00,,,-99.99,,2013-02-20 20:51:00,
2013-02-20 14:01:00,46.0,13.0,-100.00,South,190,0.0,5.0,25,0.00,,,-99.99,,2013-02-20 21:01:00,
2013-02-20 14:11:00,47.0,13.0,-100.00,South,185,1.0,4.0,25,0.00,,,-99.99,,2013-02-20 21:11:00,
2013-02-20 14:21:00,47.0,14.0,-100.00,SSE,155,3.0,6.0,25,0.00,,,-99.99,,2013-02-20 21:21:00,
2013-02-20 14:31:00,46.0,14.0,-100.00,ESE,120,2.0,9.0,26,0.00,,,-99.99,,2013-02-20 21:31:00,
2013-02-20 14:41:00,46.0,14.0,-100.00,SSW,205,2.0,6.0,26,0.00,,,-99.99,,2013-02-20 21:41:00,
2013-02-20 14:51:00,46.0,13.0,-100.00,SSE,150,3.0,9.0,25,0.00,,,-99.99,,2013-02-20 21:51:00,
2013-02-20 15:01:00,46.0,13.0,-100.00,SE,125,2.0,9.0,25,0.00,,,-99.99,,2013-02-20 22:01:00,
2013-02-20 15:11:00,46.0,13.0,-100.00,SE,125,4.0,7.0,26,0.00,,,-99.99,,2013-02-20 22:11:00,
2013-02-20 15:21:00,46.0,13.0,-100.00,SSE,150,3.0,7.0,26,0.00,,,-99.99,,2013-02-20 22:21:00,
2013-02-20 15:31:00,46.0,13.0,-100.00,SE,130,2.0,7.0,26,0.00,,,-99.99,,2013-02-20 22:31:00,
2013-02-20 15:41:00,45.0,12.0,-100.00,SE,140,4.0,13.0,26,0.00,,,-99.99,,2013-02-20 22:41:00,
2013-02-20 15:51:00,45.0,13.0,-100.00,SE,125,2.0,8.0,27,0.00,,,-99.99,,2013-02-20 22:51:00,
2013-02-20 16:01:00,45.0,13.0,-100.00,SSE,155,2.0,8.0,27,0.00,,,-99.99,,2013-02-20 23:01:00,
2013-02-20 16:12:00,44.0,13.0,-100.00,SE,140,3.0,12.0,27,0.00,,,-99.99,,2013-02-20 23:12:00,
2013-02-20 16:22:00,44.0,13.0,-100.00,SSE,160,3.0,6.0,28,0.00,,,-99.99,,2013-02-20 23:22:00,
2013-02-20 16:31:00,44.0,13.0,-100.00,SE,140,3.0,11.0,28,0.00,,,-99.99,,2013-02-20 23:31:00,
2013-02-20 16:42:00,44.0,13.0,-100.00,SSE,160,4.0,9.0,29,0.00,,,-99.99,,2013-02-20 23:42:00,
2013-02-20 16:52:00,43.0,14.0,-100.00,SE,140,2.0,9.0,29,0.00,,,-99.99,,2013-02-20 23:52:00,
2013-02-20 17:02:00,43.0,14.0,-100.00,SSE,165,2.0,12.0,30,0.00,,,-99.99,,2013-02-21 00:02:00,
2013-02-20 17:11:00,43.0,14.0,-100.00,SSE,155,2.0,7.0,30,0.00,,,-99.99,,2013-02-21 00:11:00,
2013-02-20 17:21:00,43.0,15.0,-100.00,SE,140,2.0,6.0,31,0.00,,,-99.99,,2013-02-21 00:21:00,
2013-02-20 17:32:00,42.0,16.0,-100.00,South,175,4.0,11.0,33,0.00,,,-99.99,,2013-02-21 00:32:00,
2013-02-20 17:41:00,41.0,18.0,-100.00,NE,50,7.0,12.0,38,0.00,,,-99.99,,2013-02-21 00:41:00,
2013-02-20 17:52:00,40.0,19.0,-100.00,SSW,195,7.0,12.0,42,0.00,,,-99.99,,2013-02-21 00:52:00,
2013-02-20 18:01:00,39.0,20.0,-100.00,SSE,160,4.0,12.0,45,0.00,,,-99.99,,2013-02-21 01:01:00,
2013-02-20 18:11:00,39.0,22.0,-100.00,SSE,160,4.0,8.0,49,0.00,,,-99.99,,2013-02-21 01:11:00,
2013-02-20 18:21:00,39.0,23.0,-100.00,SSE,165,6.0,11.0,51,0.00,,,-99.99,,2013-02-21 01:21:00,
2013-02-20 18:32:00,39.0,23.0,-100.00,SSE,155,2.0,9.0,51,0.00,,,-99.99,,2013-02-21 01:32:00,
2013-02-20 18:41:00,39.0,22.0,-100.00,SSW,210,5.0,9.0,51,0.00,,,-99.99,,2013-02-21 01:41:00,
2013-02-20 18:51:00,38.0,22.0,-100.00,SSE,155,3.0,7.0,51,0.00,,,-99.99,,2013-02-21 01:51:00,
2013-02-20 19:01:00,38.0,22.0,-100.00,South,180,2.0,7.0,52,0.00,,,-99.99,,2013-02-21 02:01:00,
2013-02-20 19:11:00,38.0,22.0,-100.00,SSW,200,1.0,6.0,52,0.00,,,-99.99,,2013-02-21 02:11:00,
2013-02-20 19:21:00,38.0,23.0,-100.00,SE,140,2.0,7.0,53,0.00,,,-99.99,,2013-02-21 02:21:00,
2013-02-20 19:32:00,38.0,23.0,-100.00,SSE,165,3.0,7.0,53,0.00,,,-99.99,,2013-02-21 02:32:00,
2013-02-20 19:42:00,38.0,23.0,-100.00,SSE,165,3.0,7.0,53,0.00,,,-99.99,,2013-02-21 02:42:00,
2013-02-20 19:51:00,38.0,23.0,-100.00,SSE,165,3.0,7.0,53,0.00,,,-99.99,,2013-02-21 02:51:00,
2013-02-20 20:01:00,37.0,23.0,-100.00,South,180,2.0,4.0,54,0.00,,,-99.99,,2013-02-21 03:01:00,
2013-02-20 20:11:00,37.0,23.0,-100.00,West,280,1.0,4.0,55,0.00,,,-99.99,,2013-02-21 03:11:00,
2013-02-20 20:21:00,37.0,23.0,-100.00,South,185,2.0,5.0,55,0.00,,,-99.99,,2013-02-21 03:21:00,
2013-02-20 20:31:00,37.0,23.0,-100.00,SSE,160,2.0,5.0,55,0.00,,,-99.99,,2013-02-21 03:31:00,
2013-02-20 20:41:00,37.0,23.0,-100.00,SE,130,3.0,7.0,57,0.00,,,-99.99,,2013-02-21 03:41:00,
2013-02-20 20:51:00,36.0,23.0,-100.00,SSE,165,3.0,6.0,59,0.00,,,-99.99,,2013-02-21 03:51:00,
2013-02-20 21:01:00,36.0,24.0,-100.00,South,185,1.0,5.0,60,0.00,,,-99.99,,2013-02-21 04:01:00,
2013-02-20 21:11:00,36.0,24.0,-100.00,South,185,0.0,6.0,61,0.00,,,-99.99,,2013-02-21 04:11:00,
2013-02-20 21:21:00,36.0,24.0,-100.00,SSW,195,4.0,7.0,62,0.00,,,-99.99,,2013-02-21 04:21:00,
2013-02-20 21:31:00,36.0,24.0,-100.00,WSW,255,1.0,4.0,62,0.00,,,-99.99,,2013-02-21 04:31:00,
2013-02-20 21:41:00,35.0,24.0,-100.00,NNE,20,1.0,9.0,62,0.00,,,-99.99,,2013-02-21 04:41:00,
2013-02-20 21:51:00,35.0,23.0,-100.00,ESE,105,1.0,9.0,61,0.00,,,-99.99,,2013-02-21 04:51:00,
2013-02-20 22:02:00,35.0,23.0,-100.00,SE,130,1.0,7.0,61,0.00,,,-99.99,,2013-02-21 05:02:00,
2013-02-20 22:12:00,35.0,23.0,-100.00,ESE,115,1.0,5.0,61,0.00,,,-99.99,,2013-02-21 05:12:00,
2013-02-20 22:22:00,35.0,23.0,-100.00,SSW,195,2.0,7.0,61,0.00,,,-99.99,,2013-02-21 05:22:00,
2013-02-20 22:33:00,35.0,23.0,-100.00,South,190,3.0,6.0,61,0.00,,,-99.99,,2013-02-21 05:33:00,
2013-02-20 22:42:00,35.0,23.0,-100.00,SSE,165,0.0,4.0,61,0.00,,,-99.99,,2013-02-21 05:42:00,
2013-02-20 22:52:00,34.0,22.0,-100.00,South,180,1.0,3.0,61,0.00,,,-99.99,,2013-02-21 05:52:00,
2013-02-20 23:01:00,35.0,22.0,-100.00,South,175,2.0,6.0,61,0.00,,,-99.99,,2013-02-21 06:01:00,
2013-02-20 23:11:00,35.0,23.0,-100.00,South,180,2.0,6.0,61,0.00,,,-99.99,,2013-02-21 06:11:00,
2013-02-20 23:21:00,35.0,23.0,-100.00,North,355,1.0,6.0,61,0.00,,,-99.99,,2013-02-21 06:21:00,
2013-02-20 23:31:00,35.0,23.0,-100.00,South,190,1.0,4.0,61,0.00,,,-99.99,,2013-02-21 06:31:00,
2013-02-20 23:41:00,35.0,23.0,-100.00,SSW,200,6.0,10.0,61,0.00,,,-99.99,,2013-02-21 06:41:00,
2013-02-20 23:51:00,35.0,23.0,-100.00,SE,130,1.0,10.0,61,0.00,,,-99.99,,2013-02-21 06:51:00,